STARLINK-36532, 67628

Orbit data source: Space-Track

STARLINK-36532, 67628 is a payload satellite owned by SpaceX/Seattle (US) in LEO that was launched on Fri, 30 Jan 2026 UTC via an FALCON 9 launch vehicle from the Air Force Eastern Test Range (AFETR). Payload-class satellites include a variety of spacecraft equipped with specific instruments for various scientific and technological missions. These include communications satellites like Starlink; space stations such as the ISS; scientific satellites like the Hubble; Earth observation satellites from companies like Planet Labs, Umbra, and HawkEye 360; GPS; miniature CubeSats for education and research; and military/defense satellites.

Loading next visibility...
Identifier
67628, 2026-020M
Orbit
LEO
Country
Flag of USUS
Related business
Manufacturer
SpaceX/Seattle
Mission
Operational spacecraft
Bus & Motor
STARLINK V2MO, Unknown motor
Mass
575 kg wet, ~530 kg dry
Launch date (UTC)
2026-01-30 (2 months ago)
Launch vehicle
FALCON 9
Launch site
Air Force Eastern Test Range (AFETR)
Object type
Payload
Rocket body
Debris
Shape & HBR
Unknown shape, 17.7 m
Radar Cross Section
RCS unknown

Expand to show TLE details & history
Last TLE update: 11 hours ago

TLE from 11 hours ago
0 STARLINK-36532
1 67628U 26020M   26104.57390487  .00010963  00000-0  40724-3 0  9994
2 67628  43.0019 296.9392 0001189 279.1033  80.9685 15.27585049 11602
Epoch: 2026-04-14T13:46Z
TLE epoch observation values (Epoch: 2026-04-14T13:46:25.380Z)
Latitude
0.00003°
Longitude
-112.41472°
Altitude
482.682 km
Speed
7.626 km/s
True Right ascension
19h 47m 45s
True Declination
0° 00' 00"
Sunlit
Object was in daylight at epoch
Visualization orbit readout
Latitude
Unknown
Longitude
Unknown
Altitude
Unknown
Speed
Unknown
Apparent Right ascension
Unknown
Apparent Declination
Unknown
Sunlit
N/A
Visualization observer readout
Local Sidereal Time
07:04:48
Azimuth
Unknown
Elevation
Unknown
Doppler factor
Unknown
Orbital elements
Apogee altitude
485.795 km
Perigee altitude
484.163 km
Semi-major axis
6,863.116 km
Eccentricity
0.00012
Inclination
43.0019°
RAAN
296.9392°
Arg. of periapsis
279.1033°
True anomaly
80.98196°
Mean anomaly
80.9685°
Eccentric anomaly
80.97523°
Mean motion
3.81734 °/min
Orbital period
94.31 mins
BSTAR
0.00040724
Loading maneuver chart data...
Computing Atmospheric mass density...
Loading historical data...
Loading historical data...
Loading historical data...
Loading historical data...
Loading historical data...
Loading historical data...
Loading historical data...

Documentation

Showing up to 5 results
|